Regional Weather Roundup
Issued by NWS Kansas City/Pleasant Hill, MO

Home | Current Version | Previous Version | Graphics & Text | Print | Product List | Glossary Off
Versions: 1 2 3 4 5 6 7 8 9 10 11 12 13 14 15 16 17 18 19 20 21 22 23 24 25 26 27 28 29 30 31 32 33 34 35 36 37 38 39 40 41 42 43 44 45 46 47 48 49 50

000
ASUS43 KEAX 300210
RWREAX

WEATHER ROUNDUP FOR EASTERN KANSAS AND NORTHWEST MISSOURI
NATIONAL WEATHER SERVICE KANSAS CITY/PLEASANT HILL MO
900 PM CDT TUE JUL 29 2014

KSZ040-057-103>105-MOZ028-029-037-043-300300-
...KANSAS CITY METROPOLITAN AREA...

CITY           SKY/WX    TMP DP  RH WIND       PRES   REMARKS
K.C. INTL      MOCLDY    72  60  66 NE3       30.09S
K.C. DOWNTOWN  CLEAR     76  58  53 N6        30.07S
LEES SUMMIT    CLOUDY    77  58  51 NE5       30.09S
OLATHE - IXD   PTCLDY    71  58  63 N5        30.09F
OLATHE - OJC   PTCLDY    74  57  55 N6        30.08S
LAWRENCE       PTCLDY    71  60  68 NE3       30.08S

$$

MOZ001>008-011>017-020>025-030>033-038>040-044>046-053-054-300300-
...NORTHERN AND CENTRAL MISSOURI...

CITY           SKY/WX    TMP DP  RH WIND       PRES   REMARKS
ST. JOSEPH     MOCLDY    69  63  81 NW3       30.09S
MOSBY          PTCLDY    70  61  73 CALM      30.08S
WHITEMAN AFB   CLEAR     70  51  51 CALM      30.08S
CLINTON        CLEAR     72  63  73 CALM      30.08S
SEDALIA        CLEAR     73  58  59 CALM      30.08F
WARSAW         NOT AVBL
MARSHALL       PTCLDY    73  64  73 CALM      30.09R
CHILLICOTHE      N/A     67  61  81 CALM      30.09S
MOBERLY        CLEAR     66  57  72 CALM      30.08S
KIRKSVILLE     CLEAR     64  59  83 CALM      30.09S

$$

MOZ041-047>049-056>058-063>065-088>090-097-300300-
...EASTERN AND SOUTHERN MISSOURI...

CITY           SKY/WX    TMP DP  RH WIND       PRES   REMARKS
ST. LOUIS INTL PTCLDY    74  55  51 CALM      30.07F
SPIRIT OF STL  PTCLDY    67  59  75 CALM      30.06S
COLUMBIA       CLEAR     72  58  61 NE3       30.08S
JEFFERSON CITY CLEAR     71  57  61 CALM      30.06S
MEXICO         CLEAR     66  66 100 CALM      30.08S
HANNIBAL       CLEAR     64  57  77 CALM      30.08S
ROLLA          MOCLDY    69  55  60 CALM      30.07S
LEBANON        PTCLDY    72  55  56 CALM      30.09S
OSAGE BEACH      N/A     70  57  64 CALM      30.07S
SPRINGFIELD    CLEAR     75  57  53 CALM      30.08S
BRANSON        MOCLDY    73  57  56 CALM      30.10F
NEVADA         PTCLDY    70  64  83 CALM      30.10R HAZE
JOPLIN         PTCLDY    73  60  63 CALM      30.08F
WEST PLAINS    CLEAR     68  58  70 CALM      30.09F
MALDEN         CLEAR     70  59  68 CALM      30.08S

$$

IAZ060-094-KSZ022-034>040-054-083-096-NEZ052-066-093-300300-
...KANSAS...SOUTHEAST NEBRASKA AND IOWA...

CITY           SKY/WX    TMP DP  RH WIND       PRES   REMARKS
TOPEKA         MOCLDY    75  60  59 E6        30.08S
MANHATTAN      MOCLDY    77  58  51 CALM      30.08R
EMPORIA        PTCLDY    69  59  70 S5        30.08S
CHANUTE        PTCLDY    71  59  65 NE3       30.08F
WICHITA        MOCLDY    81  63  54 SE15      30.05R
OMAHA          MOCLDY    72  56  57 CALM      30.11S
LINCOLN        MOCLDY    71  55  56 NE3       30.13S
FALLS CITY     MOCLDY    72  59  63 NE3       30.09S
LAMONI         PTCLDY    68  56  65 CALM      30.09S
DES MOINES     PTCLDY    71  54  54 NW5       30.07S

$$




USA.gov is the U.S. government's official web portal to all federal, state and local government web resources and services.